DW6574 Weather Reports


time (UTC)temp
C
wind
direction
speed
KPH
gust
KPH
rain 1hr
cm
rain 24hr
cm
rain mn
cm
humidity
%
barometer
mb
20260505023018 13 208 1.6 8.0 0.00 0.00 0.00 61 1010.1
20260505021519 13 203 1.6 14.5 0.00 0.00 0.00 60 1010.2
20260505020018 13 199 1.6 9.7 0.00 0.00 0.00 58 1010.1
20260505014521 14 222 1.6 16.1 0.00 0.00 0.00 56 1010.0
20260505013017 14 222 3.2 19.3 0.00 0.00 0.00 55 1010.0
20260505011517 15 198 8.0 20.9 0.00 0.00 0.00 54 1009.7
20260505010016 15 200 4.8 20.9 0.00 0.00 0.00 53 1009.4
20260505004514 15 189 3.2 16.1 0.00 0.00 0.00 52 1009.0
20260505003014 16 198 4.8 16.1 0.00 0.00 0.00 50 1008.7
20260505001514 16 165 3.2 14.5 0.00 0.00 0.00 49 1008.3
20260505000014 16 176 4.8 17.7 0.00 0.00 0.00 48 1008.0
20260504234513 17 274 4.8 25.7 0.00 0.00 0.00 47 1007.8
20260504233012 17 172 3.2 17.7 0.00 0.00 0.00 46 1007.6
20260504231512 17 174 3.2 14.5 0.00 0.00 0.00 46 1007.3
20260504230012 18 204 4.8 12.9 0.00 0.00 0.00 44 1007.1
20260504224517 18 187 8.0 24.1 0.00 0.00 0.00 42 1006.8
20260504223010 19 252 3.2 19.3 0.00 0.00 0.00 40 1006.7
20260504221509 19 306 6.4 17.7 0.00 0.00 0.00 38 1006.6
20260504220010 20 217 9.7 25.7 0.00 0.00 0.00 37 1006.5
20260504214509 21 308 1.6 17.7 0.00 0.00 0.00 33 1006.5
20260504213008 21 211 3.2 11.3 0.00 0.00 0.00 32 1006.4
20260504211507 21 55 4.8 16.1 0.00 0.00 0.00 31 1006.3
20260504210011 22 293 1.6 12.9 0.00 0.00 0.00 30 1006.4
20260504204510 22 27 1.6 14.5 0.00 0.00 0.00 31 1006.4
20260504203005 21 203 8.0 20.9 0.00 0.00 0.00 30 1006.2
20260504201505 22 192 0.0 11.3 0.00 0.00 0.00 31 1006.6
20260504200004 21 226 1.6 11.3 0.00 0.00 0.00 30 1006.7
20260504194501 22 279 6.4 16.1 0.00 0.00 0.00 28 1006.6
20260504193100 22 204 8.0 17.7 0.00 0.00 0.00 27 1006.6
20260504191612 22 302 3.2 24.1 0.00 0.00 0.00 27 1006.6
20260504190056 22 220 1.6 17.7 0.00 0.00 0.00 27 1006.9
20260504184555 22 103 8.0 22.5 0.00 0.00 0.00 27 1006.9
20260504183054 22 305 1.6 25.7 0.00 0.00 0.00 26 1007.1
20260504181552 22 194 1.6 24.1 0.00 0.00 0.00 29 1007.2
20260504180049 21 304 1.6 35.4 0.00 0.00 0.00 29 1007.3
20260504174553 21 195 3.2 20.9 0.00 0.00 0.00 29 1007.5
20260504173044 21 316 1.6 19.3 0.00 0.00 0.00 29 1007.5
20260504171543 21 219 4.8 16.1 0.00 0.00 0.00 32 1007.6
20260504120105 11 220 0.0 9.7 0.00 0.08 0.00 53 1010.9
20260504081525 5 206 0.0 1.6 0.00 0.08 0.00 71 1010.5
20260504044556 2 214 0.0 1.6 0.00 0.08 0.00 75 1010.4
20260504043111 2 214 0.0 1.6 0.00 0.08 0.00 78 1010.4
20260504041549 2 216 0.0 1.6 0.00 0.08 0.00 79 1010.3
20260504040047 2 218 0.0 1.6 0.00 0.08 0.00 81 1010.1
20260504034551 1 216 0.0 1.6 0.00 0.08 0.08 81 1009.9
20260504033044 2 212 0.0 1.6 0.00 0.08 0.08 80 1009.8
20260504031550 2 224 0.0 0.0 0.00 0.08 0.08 78 1009.8
20260504030055 2 221 0.0 1.6 0.00 0.08 0.08 76 1009.7
20260504024540 2 215 0.0 1.6 0.00 0.08 0.08 76 1009.7